sat.trackr.live / text

‹ back to catalog

ONEWEB-0257

NORAD 48975 · 2021-060J

PAYLOAD ACTIVE UNKNOWN

§ Identity

Operator
Country
UK
Launch date
2021-07-01
Launch site
VOSTO
Launch vehicle
Mass (kg)
RCS (m²)

Purposes: comms

External: N2YO · Heavens-Above · Gunter

§ Orbital elements

Epoch: 2026-05-25T05:27:50.764896Z

Period
109.37 min
Inclination
87.9105°
Eccentricity
0.0001906
Mean motion
13.16592980 rev/d
Perigee alt
1,196.3 km
Apogee alt
1,199.2 km
Semi-major
7,575.9 km
B*
1.1694e-4
RAAN
233.3296°
Arg perigee
96.4451°
Mean anomaly
263.6897°
Rev number
23,656

§ Raw data

ONEWEB-02571 48975U 21060J   26145.22767089  .00000058  00000+0  11694-3 0  99972 48975  87.9105 233.3296 0001906  96.4451 263.6897 13.16592980236565

JSON: /api/v1/satellites/48975 · /tle

For live sub-satellite position, see the globe view (requires WebGL).

§ Visibility from observer

Set your observer location to see the next 7 days of passes ≥ 10°. The values pass through the URL so the page stays shareable.

No JS? Fill the form by hand. The geolocation button needs JavaScript.